QPF
0.00 0.00 0.00 0.00 0.00 0.00 0.00 0.00 0.00 0.00 0.00 0.00 0.00 0.00 0.00 0.00 0.00 0.00 0.00 0.00 0.00 0.00 0.00 0.00 0.00 0.00 0.00 0.00 0.00 0.00 0.00 0.00 0.00 0.00 0.00 0.02 0.01 0.01 0.02 0.01 0.08 0.06 0.00
0.00 0.00 0.00 0.00 0.00 0.00 0.00 0.00 0.00 0.00 0.00 0.00 0.00 0.00 0.00 0.00 0.00 0.00 0.00 0.00 0.00 0.00 0.00 0.00 0.00 0.00 0.00 0.00 0.00 0.00 0.00 0.00 0.00 0.00 0.00 0.02 0.06 0.01 0.00 0.01 0.04 0.06 0.00
0.00 0.00 0.00 0.00 0.00 0.00 0.00 0.00 0.00 0.00 0.00 0.00 0.00 0.00 0.00 0.00 0.00 0.00 0.00 0.00 0.00 0.00 0.00 0.00 0.00 0.00 0.00 0.00 0.00 0.00 0.00 0.00 0.00 0.00 0.00 0.03 0.09 0.08 0.00 0.02 0.03 0.02 0.00
0.00 0.00 0.00 0.00 0.00 0.00 0.00 0.00 0.00 0.00 0.00 0.00 0.00 0.00 0.00 0.00 0.00 0.00 0.00 0.00 0.00 0.00 0.00 0.00 0.00 0.00 0.00 0.00 0.00 0.00 0.00 0.00 0.00 0.00 0.00 0.03 0.08 0.13 0.08 0.01 0.04 0.01 0.00
0.00 0.00 0.00 0.00 0.00 0.00 0.00 0.00 0.00 0.00 0.00 0.00 0.00 0.00 0.00 0.00 0.00 0.00 0.00 0.00 0.00 0.00 0.00 0.00 0.00 0.00 0.00 0.00 0.00 0.00 0.00 0.00 0.00 0.00 0.01 0.03 0.08 0.09 0.04 0.01 0.05 0.01 0.00
0.00 0.00 0.00 0.00 0.00 0.00 0.00 0.00 0.00 0.00 0.00 0.00 0.00 0.00 0.00 0.00 0.00 0.00 0.00 0.00 0.00 0.00 0.00 0.00 0.00 0.00 0.00 0.00 0.00 0.00 0.00 0.00 0.00 0.01 0.01 0.05 0.05 0.08 0.03 0.01 0.03 0.00 0.00
0.00 0.00 0.00 0.00 0.00 0.00 0.00 0.00 0.00 0.00 0.00 0.00 0.00 0.00 0.00 0.00 0.00 0.00 0.00 0.00 0.00 0.00 0.00 0.00 0.00 0.00 0.00 0.00 0.00 0.00 0.00 0.00 0.00 0.01 0.02 0.06 0.16 0.12 0.09 0.04 0.03 0.00 0.00
0.00 0.00 0.00 0.00 0.00 0.00 0.00 0.00 0.00 0.00 0.00 0.00 0.00 0.00 0.00 0.00 0.00 0.00 0.00 0.00 0.00 0.00 0.00 0.00 0.00 0.00 0.00 0.00 0.00 0.00 0.00 0.00 0.00 0.00 0.02 0.05 0.14 0.13 0.16 0.05 0.00 0.00 0.00
0.00 0.00 0.00 0.00 0.00 0.00 0.00 0.00 0.00 0.00 0.00 0.00 0.00 0.00 0.00 0.00 0.00 0.00 0.00 0.00 0.00 0.00 0.00 0.00 0.00 0.00 0.00 0.00 0.00 0.00 0.00 0.00 0.00 0.00 0.01 0.04 0.10 0.11 0.14 0.06 0.01 0.00 0.00
0.00 0.00 0.00 0.00 0.00 0.00 0.00 0.00 0.00 0.00 0.00 0.00 0.00 0.00 0.00 0.00 0.00 0.00 0.00 0.00 0.00 0.00 0.00 0.00 0.00 0.00 0.00 0.00 0.00 0.00 0.00 0.00 0.00 0.00 0.01 0.04 0.11 0.09 0.23 0.23 0.02 0.00 0.00
0.00 0.00 0.00 0.00 0.00 0.00 0.00 0.00 0.00 0.00 0.00 0.00 0.00 0.00 0.00 0.00 0.00 0.00 0.00 0.00 0.00 0.00 0.00 0.00 0.00 0.00 0.00 0.00 0.00 0.00 0.00 0.00 0.00 0.00 0.01 0.06 0.11 0.14 0.32 0.23 0.02 0.00 0.00
0.00 0.00 0.00 0.00 0.00 0.00 0.00 0.00 0.00 0.00 0.00 0.00 0.00 0.00 0.00 0.00 0.00 0.00 0.00 0.00 0.00 0.00 0.00 0.00 0.00 0.00 0.00 0.00 0.00 0.00 0.00 0.00 0.00 0.00 0.01 0.05 0.10 0.31 0.39 0.12 0.03 0.00 0.00
0.00 0.00 0.00 0.00 0.00 0.00 0.00 0.00 0.00 0.00 0.00 0.00 0.00 0.00 0.00 0.00 0.00 0.00 0.00 0.00 0.00 0.00 0.00 0.00 0.00 0.00 0.00 0.00 0.00 0.00 0.00 0.00 0.00 0.00 0.01 0.08 0.29 0.59 0.36 0.21 0.09 0.01 0.00
0.00 0.00 0.00 0.00 0.00 0.00 0.00 0.00 0.00 0.00 0.00 0.00 0.00 0.00 0.00 0.00 0.00 0.00 0.00 0.00 0.00 0.00 0.00 0.00 0.00 0.00 0.00 0.00 0.00 0.00 0.00 0.00 0.00 0.00 0.02 0.09 0.43 0.48 0.32 0.45 0.19 0.04 0.00
0.00 0.00 0.00 0.00 0.00 0.00 0.02 0.05 0.08 0.08 0.07 0.07 0.05 0.02 0.01 0.00 0.00 0.00 0.00 0.00 0.00 0.00 0.00 0.00 0.00 0.00 0.00 0.00 0.00 0.00 0.00 0.00 0.00 0.00 0.02 0.08 0.36 0.30 0.17 0.46 0.29 0.06 0.00
0.00 0.00 0.01 0.04 0.09 0.11 0.10 0.10 0.10 0.07 0.08 0.08 0.08 0.07 0.04 0.02 0.00 0.00 0.00 0.00 0.00 0.00 0.00 0.00 0.00 0.00 0.00 0.00 0.00 0.00 0.00 0.00 0.00 0.01 0.03 0.08 0.14 0.16 0.16 0.31 0.20 0.01 0.00
0.01 0.04 0.11 0.17 0.14 0.10 0.08 0.08 0.06 0.03 0.03 0.05 0.07 0.06 0.07 0.05 0.01 0.00 0.00 0.00 0.00 0.00 0.00 0.00 0.00 0.00 0.00 0.00 0.00 0.00 0.00 0.00 0.00 0.03 0.15 0.09 0.11 0.23 0.32 0.19 0.06 0.00 0.00
0.06 0.11 0.14 0.10 0.09 0.05 0.03 0.03 0.03 0.03 0.03 0.04 0.05 0.07 0.07 0.06 0.03 0.01 0.00 0.00 0.00 0.00 0.00 0.00 0.00 0.00 0.00 0.00 0.00 0.00 0.00 0.00 0.00 0.10 0.18 0.07 0.10 0.22 0.30 0.11 0.01 0.00 0.00
0.07 0.07 0.07 0.05 0.03 0.01 0.02 0.02 0.03 0.04 0.05 0.03 0.02 0.03 0.05 0.05 0.03 0.02 0.00 0.00 0.00 0.00 0.00 0.00 0.00 0.00 0.00 0.00 0.00 0.00 0.00 0.00 0.00 0.23 0.13 0.10 0.18 0.12 0.16 0.03 0.00 0.00 0.00
0.05 0.04 0.02 0.02 0.01 0.01 0.01 0.02 0.03 0.03 0.03 0.03 0.02 0.01 0.02 0.03 0.02 0.01 0.00 0.00 0.00 0.00 0.00 0.00 0.00 0.00 0.00 0.00 0.00 0.00 0.00 0.00 0.04 0.35 0.19 0.23 0.24 0.15 0.08 0.00 0.00 0.00 0.00
0.03 0.02 0.01 0.01 0.01 0.02 0.02 0.02 0.02 0.03 0.02 0.02 0.02 0.01 0.01 0.01 0.01 0.01 0.00 0.00 0.00 0.00 0.00 0.00 0.00 0.00 0.00 0.00 0.00 0.00 0.00 0.01 0.16 0.26 0.44 0.38 0.22 0.12 0.06 0.00 0.00 0.00 0.00
0.01 0.00 0.01 0.02 0.03 0.05 0.06 0.05 0.06 0.06 0.03 0.01 0.03 0.02 0.01 0.02 0.02 0.00 0.00 0.00 0.00 0.00 0.00 0.00 0.00 0.00 0.00 0.00 0.00 0.00 0.01 0.03 0.27 0.42 0.49 0.53 0.16 0.17 0.05 0.00 0.00 0.00 0.00
0.01 0.01 0.02 0.01 0.01 0.02 0.05 0.07 0.06 0.04 0.03 0.02 0.01 0.01 0.02 0.02 0.01 0.01 0.00 0.00 0.00 0.00 0.00 0.00 0.00 0.00 0.00 0.00 0.00 0.00 0.04 0.07 0.18 0.43 0.20 0.27 0.25 0.14 0.06 0.01 0.00 0.00 0.00
0.01 0.02 0.03 0.03 0.03 0.03 0.02 0.02 0.01 0.01 0.01 0.01 0.00 0.01 0.02 0.02 0.01 0.01 0.00 0.00 0.00 0.00 0.00 0.00 0.00 0.00 0.00 0.00 0.00 0.01 0.06 0.10 0.17 0.17 0.07 0.19 0.29 0.15 0.02 0.01 0.03 0.02 0.02
0.01 0.02 0.02 0.02 0.02 0.03 0.02 0.01 0.01 0.01 0.01 0.02 0.01 0.01 0.01 0.01 0.01 0.00 0.00 0.00 0.00 0.00 0.00 0.00 0.00 0.00 0.00 0.00 0.00 0.02 0.06 0.08 0.16 0.07 0.13 0.08 0.34 0.09 0.00 0.01 0.06 0.10 0.04
0.01 0.01 0.00 0.01 0.01 0.01 0.01 0.00 0.00 0.01 0.01 0.01 0.01 0.00 0.00 0.00 0.00 0.00 0.00 0.00 0.00 0.00 0.00 0.00 0.00 0.00 0.00 0.00 0.01 0.02 0.04 0.06 0.06 0.08 0.23 0.13 0.22 0.02 0.04 0.09 0.04 0.06 0.03
MSLP
1023.43 1023.48 1023.46 1023.50 1023.50 1023.56 1023.61 1023.60 1023.64 1023.62 1023.73 1023.82 1023.81 1023.76 1023.68 1023.61 1023.55 1023.32 1023.18 1023.29 1023.14 1022.93 1022.62 1022.07 1021.66 1021.51 1021.47 1021.64 1021.79 1021.80 1021.75 1021.56 1021.49 1021.49 1021.53 1021.41 1021.17 1021.35 1021.77 1022.33 1022.86 1023.44 1023.87
1023.26 1023.27 1023.24 1023.21 1023.25 1023.35 1023.36 1023.40 1023.31 1023.33 1023.40 1023.45 1023.50 1023.59 1023.49 1023.45 1023.40 1023.39 1023.07 1022.87 1023.15 1023.00 1022.73 1022.43 1022.04 1021.62 1021.36 1021.36 1021.50 1021.62 1021.65 1021.55 1021.50 1021.50 1021.44 1021.41 1021.15 1021.30 1021.81 1022.42 1022.99 1023.55 1024.01
1023.00 1023.06 1022.93 1022.89 1022.86 1023.08 1023.27 1023.35 1023.35 1023.35 1023.24 1023.27 1023.24 1023.25 1023.21 1023.20 1023.07 1023.12 1023.00 1022.75 1022.58 1022.86 1022.78 1022.53 1022.33 1021.98 1021.72 1021.33 1021.31 1021.40 1021.48 1021.56 1021.51 1021.51 1021.57 1021.57 1021.16 1021.30 1021.82 1022.50 1023.03 1023.63 1024.21
1022.74 1022.78 1022.56 1022.43 1022.50 1022.84 1022.88 1022.90 1022.88 1022.92 1022.92 1022.93 1022.90 1022.85 1022.80 1022.83 1022.75 1022.69 1022.66 1022.59 1022.39 1022.36 1022.35 1022.40 1022.29 1022.13 1021.83 1021.52 1021.12 1021.20 1021.21 1021.33 1021.40 1021.39 1021.50 1021.39 1021.16 1021.34 1021.82 1022.46 1023.13 1023.79 1024.32
1022.24 1022.29 1022.05 1021.94 1022.20 1022.29 1022.42 1022.40 1022.49 1022.61 1022.48 1022.55 1022.62 1022.62 1022.58 1022.39 1022.29 1022.10 1022.09 1022.10 1022.05 1022.15 1021.99 1021.96 1022.19 1022.06 1021.93 1021.70 1021.35 1020.95 1021.00 1020.96 1021.11 1021.16 1021.32 1021.27 1021.09 1021.25 1021.75 1022.45 1023.14 1023.82 1024.40
1021.72 1021.79 1021.66 1021.72 1021.88 1021.95 1021.97 1022.08 1022.14 1022.23 1022.25 1022.16 1022.23 1022.13 1022.03 1021.89 1021.79 1021.71 1021.55 1021.57 1021.54 1021.73 1021.79 1021.76 1021.58 1021.55 1021.80 1021.60 1021.31 1020.87 1020.88 1020.71 1020.78 1020.85 1021.11 1021.03 1020.83 1021.01 1021.58 1022.34 1023.10 1023.84 1024.48
1021.34 1021.32 1021.12 1021.05 1021.14 1021.14 1021.10 1021.27 1021.51 1021.70 1021.65 1022.05 1022.00 1021.55 1021.30 1021.22 1021.17 1021.17 1021.13 1021.07 1021.05 1021.17 1021.25 1021.37 1021.31 1021.18 1021.07 1021.32 1021.16 1020.78 1020.80 1020.68 1020.63 1020.59 1020.90 1020.82 1020.63 1020.86 1021.50 1022.33 1022.90 1023.92 1024.53
1020.81 1020.75 1020.59 1020.42 1020.42 1020.45 1020.66 1020.85 1021.10 1020.99 1021.10 1021.35 1021.37 1021.32 1020.64 1020.33 1020.58 1020.79 1020.86 1020.75 1020.74 1020.68 1020.67 1020.85 1020.86 1020.90 1020.89 1020.69 1020.66 1020.88 1020.79 1020.65 1020.46 1020.46 1020.58 1020.68 1020.53 1020.73 1021.30 1022.29 1023.12 1023.98 1024.61
1020.26 1020.15 1019.98 1019.88 1019.82 1019.92 1019.89 1020.04 1020.28 1020.38 1020.33 1020.63 1021.01 1021.12 1020.86 1020.00 1020.24 1020.39 1020.56 1020.52 1020.48 1020.25 1020.15 1020.33 1020.44 1020.52 1020.61 1020.51 1020.63 1020.72 1020.94 1020.86 1020.65 1020.45 1020.41 1020.50 1020.36 1020.61 1021.23 1022.22 1023.13 1024.04 1024.76
1019.54 1019.40 1019.30 1019.27 1019.26 1019.16 1019.20 1019.30 1019.52 1019.72 1020.02 1019.86 1020.60 1020.55 1020.65 1020.85 1020.74 1020.03 1020.18 1020.26 1020.32 1020.14 1020.00 1019.86 1019.99 1020.14 1020.24 1020.24 1020.40 1020.59 1020.85 1020.78 1020.69 1020.57 1020.53 1020.37 1020.24 1020.47 1021.21 1022.28 1023.24 1024.14 1025.03
1018.60 1018.42 1018.36 1018.27 1018.22 1018.19 1018.19 1018.38 1018.64 1018.99 1019.18 1019.41 1019.35 1019.84 1020.28 1020.69 1021.02 1021.12 1020.19 1019.82 1020.04 1020.01 1019.92 1019.70 1019.48 1019.64 1019.85 1019.94 1020.05 1020.26 1020.60 1020.57 1020.62 1020.59 1020.54 1020.48 1020.20 1020.44 1021.09 1022.15 1023.32 1024.32 1025.18
1017.37 1017.24 1017.20 1017.12 1017.01 1016.98 1017.06 1017.26 1017.55 1017.84 1018.27 1018.66 1018.91 1019.09 1019.47 1020.05 1020.40 1020.69 1020.49 1020.10 1019.84 1019.81 1019.85 1019.65 1019.39 1019.38 1019.56 1019.69 1019.94 1020.16 1020.30 1020.33 1020.46 1020.40 1020.40 1020.15 1020.02 1020.24 1020.96 1022.04 1023.14 1024.17 1025.21
1016.17 1015.93 1015.98 1015.88 1015.74 1015.72 1015.87 1016.14 1016.62 1017.03 1017.24 1017.55 1018.06 1018.39 1018.79 1019.21 1019.74 1020.14 1020.34 1020.15 1019.97 1019.83 1019.68 1019.69 1019.51 1019.47 1019.46 1019.55 1019.64 1020.02 1020.05 1020.15 1020.13 1020.14 1019.86 1019.83 1019.55 1019.09 1020.83 1022.19 1023.06 1024.17 1025.29
1015.09 1014.93 1014.84 1014.86 1014.75 1014.71 1014.88 1015.18 1015.38 1015.98 1016.25 1016.54 1016.91 1017.84 1018.28 1018.61 1019.21 1019.64 1019.97 1020.22 1019.88 1019.69 1019.57 1019.51 1019.65 1019.53 1019.55 1019.54 1019.54 1019.89 1019.80 1020.04 1019.95 1019.91 1019.87 1019.62 1019.79 1020.73 1021.71 1022.57 1023.27 1024.32 1025.38
1014.63 1014.33 1014.09 1014.02 1014.07 1014.07 1014.18 1014.42 1014.72 1014.97 1015.28 1015.56 1015.98 1016.94 1017.60 1018.05 1018.71 1019.23 1019.72 1019.95 1019.53 1018.99 1018.99 1019.51 1019.17 1019.75 1019.60 1019.63 1019.61 1019.56 1019.57 1019.95 1019.73 1019.49 1019.22 1019.59 1020.21 1020.84 1021.72 1023.00 1023.94 1024.79 1025.69
1014.05 1013.68 1013.57 1013.34 1013.11 1013.21 1013.48 1013.75 1013.79 1013.99 1014.44 1014.99 1015.49 1016.23 1016.94 1017.60 1018.25 1018.75 1019.32 1019.61 1019.69 1019.16 1018.76 1019.28 1019.49 1019.68 1019.78 1019.58 1019.81 1019.61 1019.64 1019.83 1019.71 1019.28 1019.21 1019.69 1020.46 1021.14 1022.14 1023.10 1024.19 1025.30 1025.86
1013.36 1013.38 1013.05 1012.68 1012.73 1012.82 1012.90 1013.00 1013.00 1013.40 1013.86 1014.42 1014.99 1015.44 1016.07 1016.83 1017.52 1018.23 1018.81 1019.27 1019.57 1019.58 1019.09 1019.67 1019.67 1019.84 1019.81 1019.71 1019.67 1019.67 1019.63 1019.38 1019.37 1019.14 1019.16 1019.45 1020.32 1021.35 1022.62 1023.41 1024.53 1025.56 1026.31
1013.43 1012.90 1012.74 1012.45 1012.22 1012.12 1012.11 1012.16 1012.29 1012.59 1013.04 1013.51 1014.13 1014.57 1015.27 1016.28 1017.12 1017.82 1018.46 1019.03 1019.46 1019.65 1019.38 1019.32 1019.64 1019.63 1019.68 1020.06 1019.86 1019.62 1019.49 1019.47 1019.45 1019.30 1019.24 1019.94 1020.89 1021.56 1022.69 1024.01 1024.87 1025.86 1026.69
1013.06 1012.49 1012.04 1011.75 1011.51 1011.32 1011.28 1011.32 1011.55 1011.78 1012.31 1012.88 1013.41 1014.17 1014.92 1015.76 1016.67 1017.42 1018.09 1018.84 1019.37 1019.63 1019.65 1019.35 1019.50 1019.79 1020.02 1020.16 1020.09 1020.00 1019.65 1019.68 1019.71 1019.80 1019.83 1020.46 1021.45 1022.42 1023.08 1024.46 1025.47 1026.20 1027.29
1012.62 1012.04 1011.51 1011.10 1010.78 1010.56 1010.50 1010.63 1010.88 1011.30 1011.98 1012.65 1013.39 1013.99 1014.76 1015.49 1016.10 1017.04 1017.98 1018.72 1019.19 1019.37 1019.39 1019.35 1019.34 1019.64 1019.69 1020.09 1019.98 1019.70 1019.72 1019.99 1019.99 1020.21 1020.43 1021.12 1021.57 1022.96 1023.96 1025.03 1026.03 1026.92 1027.81
1012.31 1011.68 1010.95 1010.34 1009.89 1009.64 1009.63 1009.91 1010.35 1010.98 1011.76 1012.62 1013.49 1014.19 1014.70 1015.52 1016.20 1016.91 1017.46 1018.64 1018.94 1019.16 1019.27 1019.24 1019.37 1019.48 1019.53 1020.00 1019.82 1019.73 1019.79 1020.16 1020.19 1019.94 1020.84 1021.80 1022.24 1023.27 1025.03 1025.88 1026.70 1027.60 1028.57
1011.93 1011.24 1010.47 1009.84 1009.23 1008.91 1008.97 1009.35 1010.08 1010.87 1011.72 1012.55 1013.42 1014.23 1014.90 1015.70 1016.50 1017.15 1017.79 1018.73 1019.02 1019.19 1019.31 1019.20 1019.27 1019.18 1019.39 1019.55 1019.96 1019.81 1019.87 1019.76 1020.56 1020.87 1020.77 1021.59 1022.56 1024.37 1025.59 1026.40 1027.37 1028.33 1029.19
1011.99 1011.12 1010.39 1009.78 1009.29 1008.92 1008.97 1009.48 1010.18 1011.04 1011.87 1012.74 1013.59 1014.34 1014.90 1015.76 1016.60 1017.37 1018.35 1019.07 1019.54 1019.80 1019.81 1019.65 1019.40 1019.40 1019.36 1019.51 1019.62 1020.12 1019.97 1019.96 1020.59 1021.68 1021.35 1024.15 1024.91 1026.38 1027.43 1028.15 1028.35 1029.19 1029.86
1012.31 1011.49 1010.84 1010.32 1009.88 1009.70 1009.79 1010.27 1010.89 1011.69 1012.52 1013.38 1014.13 1014.80 1015.30 1015.93 1016.80 1017.57 1018.30 1019.01 1019.60 1020.14 1020.17 1020.21 1019.89 1020.10 1019.62 1019.72 1019.88 1020.30 1020.32 1020.46 1021.24 1022.03 1022.19 1025.26 1026.78 1028.21 1029.13 1029.81 1029.93 1029.99 1030.67
1012.72 1012.02 1011.58 1011.23 1010.83 1010.72 1010.99 1011.41 1011.85 1012.50 1013.29 1014.10 1014.86 1015.21 1015.94 1016.61 1017.31 1017.86 1018.38 1018.99 1019.60 1020.15 1020.77 1020.81 1020.75 1020.79 1020.84 1020.38 1020.33 1020.57 1020.61 1020.57 1022.11 1023.64 1024.50 1025.45 1028.15 1029.40 1030.69 1031.77 1031.86 1031.63 1031.72
1013.51 1012.84 1012.42 1012.39 1012.13 1012.09 1012.35 1012.59 1012.79 1013.33 1014.04 1014.66 1015.54 1016.34 1016.98 1017.45 1018.11 1018.49 1018.82 1019.24 1019.70 1020.31 1020.67 1020.98 1020.91 1020.48 1020.65 1021.06 1020.99 1020.89 1020.70 1021.02 1022.58 1024.49 1025.59 1025.90 1028.35 1029.34 1031.85 1033.42 1033.47 1033.00 1033.12
Thickness
5495 5493 5492 5491 5491 5490 5489 5490 5491 5492 5494 5495 5499 5504 5509 5514 5518 5524 5530 5536 5541 5548 5556 5563 5570 5576 5581 5587 5592 5597 5603 5609 5615 5619 5622 5627 5631 5633 5634 5633 5634 5632 5632
5485 5483 5483 5482 5481 5480 5480 5480 5482 5483 5484 5486 5489 5492 5498 5502 5508 5513 5520 5527 5532 5538 5545 5553 5559 5567 5574 5581 5587 5592 5598 5604 5610 5614 5619 5623 5627 5629 5629 5628 5628 5627 5627
5477 5475 5474 5474 5473 5472 5470 5470 5471 5472 5475 5477 5480 5483 5488 5492 5498 5503 5510 5517 5524 5529 5535 5543 5549 5557 5565 5573 5581 5587 5593 5599 5604 5609 5613 5617 5622 5625 5625 5624 5624 5623 5622
5470 5467 5466 5465 5463 5460 5459 5460 5461 5463 5465 5467 5470 5474 5478 5483 5489 5495 5500 5507 5514 5520 5527 5533 5541 5548 5556 5565 5575 5582 5588 5594 5599 5605 5609 5614 5619 5620 5621 5620 5620 5618 5618
5462 5459 5458 5456 5453 5451 5450 5450 5450 5451 5455 5457 5459 5462 5467 5474 5481 5487 5493 5499 5506 5512 5519 5527 5532 5540 5547 5556 5566 5577 5583 5590 5595 5601 5605 5611 5616 5617 5618 5616 5617 5615 5615
5454 5450 5448 5445 5442 5440 5439 5438 5438 5439 5442 5445 5449 5453 5457 5463 5471 5478 5484 5491 5498 5504 5510 5518 5527 5534 5540 5549 5560 5571 5578 5587 5593 5598 5602 5608 5614 5616 5616 5615 5614 5613 5613
5443 5440 5439 5437 5434 5433 5432 5430 5429 5428 5431 5430 5436 5445 5450 5456 5462 5469 5475 5482 5490 5497 5503 5511 5519 5528 5536 5544 5554 5565 5573 5581 5589 5595 5599 5605 5612 5614 5614 5613 5616 5610 5610
5435 5433 5431 5430 5427 5426 5423 5421 5419 5422 5422 5422 5427 5431 5443 5452 5454 5459 5465 5473 5480 5489 5497 5504 5513 5522 5530 5539 5549 5558 5567 5576 5585 5591 5597 5602 5610 5613 5612 5610 5608 5607 5607
5429 5427 5426 5424 5422 5420 5420 5417 5415 5415 5417 5417 5417 5419 5424 5442 5444 5449 5455 5463 5471 5481 5491 5499 5507 5516 5524 5533 5543 5552 5561 5571 5581 5588 5595 5601 5608 5611 5610 5606 5605 5604 5603
5426 5423 5421 5418 5417 5416 5416 5414 5412 5412 5410 5414 5410 5415 5417 5420 5424 5441 5446 5453 5461 5472 5481 5492 5501 5510 5519 5529 5537 5547 5556 5567 5575 5583 5590 5598 5605 5607 5606 5603 5602 5600 5598
5424 5420 5417 5415 5413 5411 5411 5409 5408 5406 5407 5407 5411 5409 5410 5411 5414 5417 5434 5445 5451 5462 5472 5483 5495 5504 5514 5523 5533 5543 5552 5563 5572 5578 5586 5593 5601 5603 5605 5601 5597 5596 5594
5425 5421 5417 5414 5413 5411 5409 5406 5404 5403 5401 5401 5403 5405 5405 5404 5406 5411 5420 5430 5441 5452 5463 5475 5487 5497 5507 5517 5528 5539 5549 5559 5568 5577 5584 5593 5602 5606 5604 5598 5598 5596 5592
5425 5421 5414 5410 5408 5405 5403 5400 5396 5394 5395 5395 5394 5396 5398 5401 5403 5405 5411 5422 5431 5442 5455 5466 5478 5489 5499 5510 5523 5534 5545 5556 5566 5575 5585 5593 5603 5611 5604 5596 5597 5594 5589
5423 5417 5411 5404 5400 5396 5392 5389 5388 5384 5384 5385 5386 5384 5387 5391 5394 5398 5403 5410 5422 5434 5445 5459 5469 5481 5492 5504 5518 5530 5542 5553 5563 5573 5581 5590 5595 5595 5591 5592 5592 5590 5586
5413 5407 5401 5395 5388 5383 5379 5375 5371 5370 5371 5373 5375 5374 5375 5379 5383 5387 5393 5400 5415 5431 5441 5450 5467 5473 5486 5499 5513 5526 5539 5550 5561 5573 5583 5587 5586 5583 5591 5586 5585 5584 5581
5400 5393 5384 5378 5374 5367 5360 5355 5354 5353 5351 5351 5354 5356 5360 5363 5369 5376 5382 5391 5402 5419 5435 5443 5457 5469 5481 5495 5508 5522 5535 5547 5559 5573 5582 5587 5583 5588 5588 5584 5582 5578 5578
5390 5378 5371 5365 5357 5348 5340 5336 5335 5332 5332 5332 5335 5339 5343 5349 5354 5361 5372 5382 5390 5404 5421 5431 5448 5463 5476 5491 5504 5518 5532 5546 5557 5572 5582 5590 5590 5585 5581 5582 5579 5576 5574
5376 5368 5356 5346 5337 5329 5323 5318 5315 5313 5312 5314 5316 5321 5327 5331 5337 5346 5358 5371 5380 5393 5411 5428 5444 5460 5475 5485 5500 5516 5530 5543 5555 5570 5583 5583 5580 5584 5581 5578 5577 5574 5571
5366 5355 5342 5329 5319 5312 5306 5300 5294 5292 5290 5291 5295 5299 5305 5311 5320 5333 5348 5360 5371 5383 5400 5421 5440 5455 5468 5482 5497 5512 5529 5541 5553 5565 5576 5582 5582 5580 5581 5575 5573 5570 5565
5356 5342 5332 5324 5316 5310 5304 5298 5294 5289 5285 5283 5283 5288 5292 5301 5314 5326 5340 5351 5364 5378 5396 5416 5438 5454 5469 5481 5497 5514 5529 5539 5552 5559 5570 5574 5576 5576 5574 5572 5567 5564 5562
5348 5341 5332 5323 5313 5306 5300 5295 5291 5287 5283 5280 5281 5284 5292 5299 5310 5324 5338 5346 5360 5375 5393 5415 5435 5454 5469 5480 5498 5514 5529 5537 5548 5558 5570 5570 5573 5572 5565 5564 5563 5560 5558
5352 5344 5337 5328 5319 5308 5299 5291 5284 5279 5276 5276 5277 5282 5290 5299 5309 5322 5333 5342 5357 5375 5393 5416 5437 5458 5471 5486 5498 5515 5527 5543 5547 5553 5573 5571 5570 5563 5559 5558 5559 5556 5556
5354 5348 5341 5331 5320 5309 5299 5288 5278 5271 5269 5269 5271 5277 5286 5296 5307 5320 5327 5338 5351 5369 5389 5414 5439 5457 5473 5486 5500 5511 5528 5543 5551 5548 5556 5550 5556 5551 5550 5550 5551 5551 5553
5356 5351 5343 5333 5322 5308 5295 5284 5275 5266 5262 5260 5263 5270 5279 5292 5306 5319 5331 5342 5354 5369 5388 5409 5435 5453 5473 5486 5500 5514 5529 5542 5549 5553 5557 5542 5541 5538 5539 5541 5545 5547 5548
5360 5355 5346 5337 5328 5316 5299 5288 5281 5274 5267 5263 5262 5268 5277 5289 5306 5319 5334 5349 5363 5377 5394 5414 5435 5452 5469 5487 5501 5517 5531 5547 5545 5542 5544 5549 5534 5532 5531 5529 5533 5539 5542
5363 5358 5352 5341 5333 5325 5312 5302 5295 5288 5279 5273 5270 5270 5278 5295 5310 5325 5344 5360 5376 5390 5407 5422 5440 5460 5475 5488 5505 5517 5535 5546 5544 5540 5543 5549 5534 5536 5524 5517 5523 5530 5534